Weather History for Mt. Pocono, PA

Change the Weather History Date:

Sunday, December 9, 2012

  Actual Average Record
Temperature  
Mean Temperature 40 °F 30 °F  
Max Temperature 47 °F 36 °F 65 °F (1966)
Min Temperature 33 °F 23 °F -1 °F (1902)
Degree Days  
Heating Degree Days 25 35  
Month to date heating degree days 226 305  
Since 1 July heating degree days 1762 1884  
Cooling Degree Days 0 0  
Month to date cooling degree days 0 0  
Year to date cooling degree days 453 314  
Moisture  
Dew Point 34 °F    
Average Humidity 82    
Maximum Humidity 100    
Minimum Humidity 64    
Precipitation  
Precipitation 0.03 in 0.15 in 1.82 in (1974)
Month to date precipitation 0.60 1.25  
Year to date precipitation 43.81 46.16  
Sea Level Pressure  
Sea Level Pressure 30.11 in    
Wind  
Wind Speed 9 mph (NE)    
Max Wind Speed 16 mph    
Max Gust Speed 22 mph    
Visibility 7 miles    
Events Fog , Rain    
T = Trace of Precipitation, MM = Missing Value Source: NWS Daily Summary

Daily Weather History Graph

Daily Weather History Graph

Search for Another Location

Airport:

Trip Planner

Search our weather history database for the weather conditions in past years. The results will help you decide how hot, cold, wet, or windy it might be!

Date:

Astronomy

Dec. 09, 2012 Rise Set
Actual Time 7:15 AM EST 4:32 PM EST
Civil Twilight 6:44 AM EST 5:03 PM EST
Nautical Twilight 6:09 AM EST 5:38 PM EST
Astronomical Twilight 5:36 AM EST 6:11 PM EST
Moon 2:43 AM EST (12/9) 1:39 PM EST (12/9)
Length of Visible Light 10h 19m
Length of Day
9h 17m
Waning Crescent, 19% of the Moon is Illuminated
Dec 9
Waning Crescent
Dec 13
New
Dec 20
First Quarter
Dec 28
Full
Jan 4
Last Quarter

Hourly Weather History & Observations

Time (EST) Temp. Windchill Dew Point Humidity Pressure Visibility Wind Dir Wind Speed Gust Speed Precip Events Conditions
12:40 AM 46.4 °F 42.4 °F 44.6 °F 93% 30.00 in 6.0 mi NW 8.1 mph - N/A   Mostly Cloudy
12:49 AM 46.4 °F 42.9 °F 44.6 °F 93% 30.01 in 8.0 mi Variable 6.9 mph - N/A   Mostly Cloudy
12:53 AM 46.9 °F - 44.1 °F 90% 30.03 in 8.0 mi NW 9.2 mph - N/A   Overcast
1:03 AM 46.4 °F 44.3 °F 44.6 °F 93% 30.01 in 10.0 mi NW 4.6 mph - N/A   Overcast
1:35 AM 46.4 °F 41.5 °F 42.8 °F 87% 30.02 in 10.0 mi NW 10.4 mph 18.4 mph N/A   Overcast
1:53 AM 45.0 °F 39.3 °F 42.1 °F 90% 30.06 in 10.0 mi NNW 11.5 mph 17.3 mph N/A   Overcast
2:03 AM 44.6 °F 39.7 °F 39.2 °F 81% 30.04 in 10.0 mi NNW 9.2 mph 19.6 mph N/A   Mostly Cloudy
2:16 AM 42.8 °F 36.6 °F 39.2 °F 87% 30.04 in 10.0 mi NNW 11.5 mph 18.4 mph N/A   Scattered Clouds
2:36 AM 44.6 °F 39.2 °F 39.2 °F 81% 30.05 in 10.0 mi NNW 10.4 mph 20.7 mph N/A   Mostly Cloudy
2:53 AM 43.0 °F 40.3 °F 37.9 °F 82% 30.07 in 10.0 mi NNW 4.6 mph - N/A   Mostly Cloudy
3:08 AM 42.8 °F 39.3 °F 37.4 °F 81% 30.04 in 10.0 mi North 5.8 mph - N/A   Mostly Cloudy
3:22 AM 42.8 °F 39.3 °F 37.4 °F 81% 30.05 in 10.0 mi North 5.8 mph - N/A   Mostly Cloudy
3:43 AM 41.0 °F 36.4 °F 37.4 °F 87% 30.06 in 10.0 mi NNW 6.9 mph - N/A   Mostly Cloudy
3:53 AM 41.0 °F 34.7 °F 37.0 °F 86% 30.09 in 10.0 mi NNW 10.4 mph - N/A   Overcast
4:04 AM 39.2 °F 32.5 °F 35.6 °F 87% 30.07 in - NNW 10.4 mph - N/A   Overcast
4:53 AM 39.0 °F 31.0 °F 34.0 °F 82% 30.12 in 10.0 mi NNW 13.8 mph 19.6 mph N/A   Overcast
5:53 AM 37.0 °F 31.0 °F 33.1 °F 86% 30.15 in 10.0 mi NNW 8.1 mph - N/A   Overcast
6:53 AM 35.1 °F 28.6 °F 30.0 °F 82% 30.20 in - North 8.1 mph - N/A   Mostly Cloudy
7:39 AM 33.8 °F 27.0 °F 30.2 °F 87% 30.17 in 10.0 mi North 8.1 mph - N/A   Scattered Clouds
7:48 AM 33.8 °F 29.6 °F 30.2 °F 87% 30.17 in 10.0 mi North 4.6 mph - N/A   Mostly Cloudy
7:53 AM 34.0 °F 28.0 °F 30.0 °F 85% 30.21 in 10.0 mi North 6.9 mph - N/A   Mostly Cloudy
8:06 AM 33.8 °F 27.7 °F 30.2 °F 87% 30.17 in 10.0 mi North 6.9 mph - N/A   Scattered Clouds
8:53 AM 35.1 °F 27.9 °F 30.0 °F 82% 30.21 in - North 9.2 mph - N/A   Clear
9:53 AM 36.0 °F 31.1 °F 28.0 °F 73% 30.22 in - NE 5.8 mph - N/A   Partly Cloudy
10:53 AM 37.9 °F 34.4 °F 27.0 °F 65% 30.22 in - Variable 4.6 mph - N/A   Overcast
11:53 AM 37.0 °F 31.0 °F 30.0 °F 76% 30.20 in - East 8.1 mph - N/A   Overcast
12:07 PM 37.4 °F 31.4 °F 30.2 °F 75% 30.17 in - ESE 8.1 mph - N/A   Overcast
12:53 PM 37.0 °F 31.6 °F 32.0 °F 82% 30.18 in - East 6.9 mph - 0.00 in   Overcast
1:53 PM 37.0 °F 31.6 °F 32.0 °F 82% 30.17 in - East 6.9 mph - N/A   Overcast
2:03 PM 37.4 °F 31.4 °F 32.0 °F 81% 30.13 in - East 8.1 mph - 0.00 in Rain Light Rain
2:53 PM 37.0 °F 33.3 °F 32.0 °F 82% 30.18 in - East 4.6 mph - 0.00 in   Overcast
3:53 PM 37.0 °F 31.0 °F 30.0 °F 76% 30.17 in - East 8.1 mph - N/A   Overcast
4:53 PM 36.0 °F 28.0 °F 28.9 °F 76% 30.17 in - ESE 11.5 mph - 0.00 in Rain Light Rain
5:19 PM 35.6 °F 27.1 °F 28.4 °F 75% 30.11 in - ESE 12.7 mph 19.6 mph 0.00 in   Overcast
5:53 PM 34.0 °F 25.0 °F 30.9 °F 89% 30.17 in 10.0 mi ESE 12.7 mph - 0.00 in   Overcast
6:29 PM 33.8 °F 25.8 °F 30.2 °F 87% 30.12 in 4.0 mi ESE 10.4 mph - N/A   Overcast
6:45 PM 33.8 °F 25.3 °F 32.0 °F 93% 30.11 in 3.0 mi ESE 11.5 mph - N/A   Overcast
6:53 PM 33.1 °F 25.5 °F 32.0 °F 96% 30.17 in 3.0 mi ESE 9.2 mph - N/A   Overcast
6:58 PM 33.8 °F 25.3 °F 32.0 °F 93% 30.11 in 1.8 mi ESE 11.5 mph - N/A   Overcast
7:10 PM 33.8 °F 25.8 °F 32.0 °F 93% 30.10 in 0.5 mi ESE 10.4 mph - N/A Fog Fog
7:53 PM 34.0 °F 25.0 °F 33.1 °F 96% 30.14 in 0.5 mi ESE 12.7 mph - 0.00 in Fog Fog
8:20 PM 33.8 °F 25.8 °F 33.8 °F 100% 30.06 in - East 10.4 mph - 0.00 in Rain Light Rain
8:53 PM 34.0 °F 26.0 °F 33.1 °F 96% 30.11 in - ESE 10.4 mph - 0.00 in Rain Light Rain
9:03 PM 33.8 °F 25.8 °F 33.8 °F 100% 30.05 in 0.5 mi East 10.4 mph - 0.00 in Fog , Rain Light Rain
9:53 PM 35.1 °F 27.4 °F 34.0 °F 96% 30.08 in 0.2 mi East 10.4 mph - 0.01 in Fog , Rain Light Rain
10:20 PM 35.6 °F 30.7 °F 33.8 °F 93% 30.02 in 0.5 mi ESE 5.8 mph - 0.01 in Fog , Rain Light Rain
10:53 PM 36.0 °F 29.0 °F 35.1 °F 97% 30.04 in 0.2 mi East 9.2 mph - 0.02 in Fog , Rain Light Rain
11:09 PM 35.6 °F 28.6 °F 35.6 °F 100% 29.99 in - ESE 9.2 mph - 0.00 in Rain Light Rain
11:53 PM 36.0 °F 29.6 °F 36.0 °F 100% 30.01 in - ESE 8.1 mph - 0.00 in Rain Light Rain